Location: *
(51.3595°N, 3.2125°E)
Time: 09:59:11
(UTC+00:00)

Daily predictions for brighter satellites

Satellite Brightness Start Highest point End
(mag) Time Altitude Azimuth Time Altitude Azimuth Time Altitude Azimuth
ASTEX 1 4.0 16:10:38 10° N 16:15:33 62° W 16:20:24 10° SSW
NOSS 2-2 (D) 3.4 16:13:09 10° SW 16:16:51 80° NW 16:21:14 10° NE
Envisat 4.0 16:13:12 10° ESE 16:17:10 24° ENE 16:21:09 10° N
Cosmos 1515 Rocket 4.0 16:12:53 10° SSW 16:17:11 67° WNW 16:21:32 10° N
Cosmos 1400 Rocket 2.8 16:13:26 10° S 16:17:33 79° E 16:21:37 10° NNE
Cosmos 1331 Rocket 4.1 16:13:15 10° NNW 16:18:32 87° WSW 16:23:49 10° SSE
Cosmos 1707 Rocket 4.5 16:14:55 10° SSE 16:18:48 30° E 16:22:43 10° NNE
Cosmos 2360 Rocket 2.3 16:14:14 10° SSW 16:19:52 73° ESE 16:25:34 10° NNE
NOAA 6 4.1 16:15:39 10° SSE 16:20:48 89° ENE 16:25:59 10° NNW
Cosmos 1689 Rocket 2.2 16:18:10 10° NNE 16:21:12 58° ESE 16:24:11 10° S
Cosmos 1151 Rocket 4.3 16:18:17 10° SW 16:22:26 42° WNW 16:26:37 10° N
STARLINK-67 3.8 16:21:11 10° SW 16:23:42 32° SSE 16:26:13 10° E
Cosmos 2369 Rocket 4.0 16:21:53 10° N 16:24:04 12° NNE 16:26:16 10° NE
Cosmos 1484 Rocket 4.4 16:22:48 10° SSW 16:26:35 40° W 16:30:24 10° NNW
Cosmos 1980 Rocket 3.9 16:21:54 10° W 16:26:37 26° NW 16:31:20 10° NNE
Cosmos 1110 Rocket 4.5 16:22:41 10° NNW 16:27:51 68° WSW 16:33:00 10° SSE
Meteor 1-11 Rocket 4.3 16:23:58 10° N 16:29:32 39° ENE 16:35:05 10° SE
Cosmos 2333 Rocket 2.9 16:25:37 10° S 16:30:46 36° ESE 16:35:59 10° NE
Cosmos 1933 4.4 16:30:41 10° SSW 16:34:34 47° WNW 16:38:29 10° N
SJ-7 4.4 16:30:25 10° SSE 16:34:37 79° ENE 16:38:47 10° NNW
COSMO-SKYMED 1 4.4 16:34:56 10° ENE 16:36:32 12° E 16:38:19 10° ESE
RESURS DK-1 3.7 16:35:10 10° SSE 16:38:25 23° ESE 16:41:15 12° ENE
Radarsat Rocket 4.2 16:33:31 10° SSE 16:39:43 77° WSW 16:45:36 10° NNW
ATLAS 3B R/B 3.2 16:33:13 10° NW 16:39:51 66° SW 16:46:38 10° SSE
ISS -3.6 16:36:41 10° W 16:40:02 75° SSW 16:43:24 10° ESE
Cosmos 2237 Rocket 3.7 16:37:13 10° SE 16:40:52 18° E 16:43:57 12° ENE
USA 267 4.0 16:34:49 10° SE 16:41:15 58° SW 16:47:43 10° WNW
NOSS 3-4 (A) 3.6 16:36:09 10° SSW 16:42:06 64° SE 16:48:18 11° NE
NOSS 3-4 (C) 3.6 16:36:16 10° SSW 16:42:13 64° SE 16:48:24 11° NE
Cosmos 2322 Rocket 3.0 16:39:02 10° SW 16:44:27 47° NW 16:49:56 10° NNE
CZ-4B R/B 2.7 16:41:48 10° N 16:45:08 41° WNW 16:48:27 10° SW
Cosmos 1812 3.9 16:43:24 10° SE 16:46:31 24° E 16:49:28 11° NE
Cosmos 1844 4.4 16:40:59 10° NW 16:46:36 59° WSW 16:52:06 10° SSE
COBE Rocket 4.3 16:44:43 10° NNE 16:49:04 38° E 16:53:23 10° SSE
YAOGAN 1 3.9 16:46:44 10° ESE 16:49:44 19° ENE 16:52:43 10° NNE
SL-16 R/B 3.3 16:45:16 10° WSW 16:50:34 40° NW 16:55:55 10° NNE
Iridium 82 4.5 16:49:11 10° S 16:52:43 89° W 16:56:19 10° N
NOSS 2-2 (C) 4.2 16:50:59 10° WSW 16:54:36 44° NW 16:58:33 12° NE
Feng Yun 1-1 Rocket 4.1 16:49:32 10° SSE 16:54:55 78° ENE 17:00:20 10° NNW
Cosmos 2219 Rocket 2.4 16:52:08 10° S 16:57:34 53° ESE 17:02:43 12° NE
NOAA 12 4.2 16:52:31 10° SE 16:57:40 54° ENE 17:02:49 10° N
BREEZE-M R/B 3.4 16:52:08 10° WSW 16:58:37 65° S 17:01:16 17° E
Ariane Rocket 4.5 17:00:25 15° NE 17:00:38 15° NE 17:03:31 10° NNE
CORIOLIS 4.1 16:55:19 10° SSE 17:00:44 73° ENE 17:06:12 10° NNW
Cosmos 1844 Rocket 4.3 16:55:52 10° NW 17:01:00 38° WSW 17:06:06 10° S
Cosmos 1733 Rocket 3.0 16:56:51 10° N 17:01:11 61° ENE 17:05:31 10° SSE
Cosmos 494 Rocket 4.2 16:57:19 10° SSW 17:02:36 75° WNW 17:07:54 10° NNE
Cosmos 1536 3.3 16:59:33 10° N 17:03:20 36° ENE 17:07:02 10° SE
PSLV R/B 3.9 17:00:26 10° NNE 17:04:39 79° ESE 17:08:47 10° SSW
Cosmos 1500 3.1 17:02:58 10° N 17:06:44 57° ENE 17:10:26 10° SSE
SMAP 3.1 17:03:03 10° SSE 17:07:43 87° WSW 17:12:25 10° NNW
Cosmos 1269 Rocket 4.1 17:02:41 10° SSW 17:08:00 80° WNW 17:13:21 10° NNE
Cosmos 1340 4.1 17:04:40 10° NNW 17:08:15 41° W 17:11:49 10° SSW
Cosmos 2297 4.4 17:05:25 10° NNW 17:10:36 33° NE 17:14:46 14° ESE
CZ-4 R/B 2.1 17:08:13 10° SE 17:11:38 29° ENE 17:15:02 10° N
Cosmos 1943 Rocket 3.5 17:10:55 10° NNW 17:14:58 19° NNE 17:16:12 18° NE
H-2A R/B 2.8 17:12:18 10° S 17:16:00 77° WSW 17:19:43 10° NNW
Cosmos 1441 Rocket 4.5 17:14:10 10° N 17:16:27 22° NE 17:16:27 22° NE
ATLAS 2AS CENTAUR R/B 3.3 17:11:58 10° SW 17:20:00 72° NW 17:26:44 16° NE
Lacrosse 5 rocket 2.3 17:16:30 10° SSW 17:20:17 31° SE 17:21:46 24° E
NOSS 7 (D) 4.0 17:19:49 10° NW 17:22:42 59° NE 17:23:57 31° ESE
COSMOS 2428 2.7 17:17:26 10° SSW 17:23:06 77° ESE 17:27:49 16° NNE
CSL-04 Rocket 4.0 17:18:27 10° SE 17:23:19 40° ENE 17:28:15 10° N
Meteor 1-5 Rocket 4.3 17:18:12 10° NNW 17:23:51 79° W 17:29:16 10° S
YAOGAN 6 2.8 17:20:38 10° SE 17:24:01 44° ENE 17:27:26 10° N
SKYMED 2 4.3 17:23:37 25° ENE 17:25:12 32° E 17:29:06 10° SSE
Cosmos 1782 Rocket 4.3 17:24:36 10° N 17:28:29 30° ENE 17:28:57 29° E
Cosmos 292 Rocket 3.9 17:24:14 10° NNW 17:29:00 50° ENE 17:33:43 10° SE
SL-4 R/B 2.3 17:25:51 10° SW 17:29:31 52° SSE 17:31:03 32° E
SeaSat 1 3.5 17:31:15 25° NE 17:31:48 25° NE 17:35:49 10° NNW
Okean O Rocket 4.3 17:28:31 10° SW 17:31:49 21° W 17:35:08 10° NW
Cosmos 2251 Rocket 3.6 17:27:48 10° S 17:32:58 55° ESE 17:36:13 22° NE
Cosmos 1092 Rocket 4.2 17:27:38 10° SSE 17:33:38 47° E 17:39:35 10° NNE
NOSS 0 Rocket 4.1 17:27:43 10° S 17:33:42 52° ESE 17:37:30 23° NE
CSL-04 Debris 4.3 17:30:19 10° SE 17:35:34 50° ENE 17:40:49 10° N
Cosmos 921 Rocket 3.7 17:32:50 10° N 17:36:26 32° NE 17:36:26 32° NE
ATLAS 5 CENTAUR R/B 2.7 17:34:55 10° S 17:35:55 18° SSE 17:35:55 18° SSE
Cosmos 2242 Rocket 3.8 17:33:00 10° S 17:37:25 52° E 17:40:14 21° NNE
CZ-4 R/B 4.4 17:34:08 10° SSE 17:38:14 60° ENE 17:42:22 10° N
FengYun 1-2 T 4.1 17:34:17 10° SSE 17:39:44 74° ENE 17:45:15 10° NNW
Cosmos 1862 Rocket 3.4 17:35:57 10° S 17:40:18 83° E 17:44:16 13° NNE
COSMOS 2455 4.2 17:35:02 10° W 17:40:21 31° NNW 17:44:47 14° NNE
Cosmos 1703 Rocket 4.1 17:38:51 10° SSE 17:42:45 35° E 17:42:45 35° E
Cosmos 1315 Rocket 4.5 17:39:43 10° SW 17:43:22 33° WNW 17:47:04 10° N
Okean-O 3.0 17:39:39 10° S 17:44:04 68° WSW 17:48:31 10° NNW
Genesis I 3.4 17:41:04 10° NW 17:44:52 45° NE 17:45:01 45° NE
Cosmos 2322 4.5 17:42:18 10° SW 17:47:50 49° NW 17:52:32 14° NNE
USA 215 3.4 17:44:09 26° ENE 17:48:01 68° NNW 17:54:30 10° W
Cosmos 1666 2.4 17:47:44 10° N 17:51:31 77° E 17:55:15 10° SSE
Cosmos 2344 4.4 17:45:33 10° NW 17:53:47 47° NNE 17:59:09 29° ENE
Cosmos 2278 Rocket 2.9 17:49:10 10° NW 17:54:43 57° WSW 18:00:13 10° S
NOAA 11 4.2 17:49:41 10° SE 17:54:58 54° ENE 18:00:18 10° N
Envisat 3.4 17:50:46 10° S 17:55:48 65° WSW 18:00:53 10° NNW
STARLINK-67 3.6 17:55:09 10° W 17:57:14 45° W 17:57:14 45° W
Cosmos 1867 3.9 17:54:19 10° NW 17:59:35 44° NE 18:00:20 41° ENE
S3M 4.4 17:54:37 10° N 18:00:12 37° ENE 18:00:12 37° ENE
BREEZE-M DEB (TANK) 3.1 17:59:58 10° WSW 18:03:53 35° S 18:04:16 33° S
Cosmos 2360 Rocket 3.8 17:59:34 10° W 18:04:27 28° NW 18:08:44 13° NNE
Cosmos 2369 Rocket 3.2 18:05:07 10° NNW 18:09:07 29° NNE 18:09:07 29° NNE
SL-16 R/B 3.3 18:06:34 10° SSE 18:09:56 28° SE 18:09:56 28° SE
Cosmos 1908 Rocket 3.9 18:07:54 10° NNW 18:12:18 66° W 18:16:38 10° S
COSMO-SKYMED 1 2.5 18:12:09 48° NNE 18:13:21 89° W 18:17:42 10° SSW
Nadezhda 4 Rocket 4.3 18:07:57 10° SSW 18:14:15 66° WNW 18:20:34 10° N
Cosmos 2333 Rocket 3.0 18:09:19 10° SW 18:14:54 51° NW 18:18:31 22° NNE
Cosmos 1553 Rocket 4.0 18:09:12 10° N 18:15:27 58° ENE 18:21:45 10° SSE
RESURS DK-1 3.1 18:12:11 10° SW 18:16:11 49° NW 18:17:10 39° N
ISS -1.8 18:13:40 10° W 18:16:27 24° SW 18:17:00 23° SSW
Cosmos 1428 Rocket 4.4 18:14:26 10° S 18:20:30 64° E 18:23:49 28° NNE
NOSS 3-1 (C) 4.3 18:14:51 10° NW 18:21:29 44° NNE 18:22:54 41° NE
Cosmos 1812 4.3 18:18:38 10° SW 18:22:11 34° WNW 18:24:35 17° NNW
Meteor 1-27 Rocket 4.3 18:16:35 10° SSW 18:22:13 58° WNW 18:28:01 10° N
Cosmos 2237 Rocket 2.1 18:18:26 10° SSW 18:24:09 90° ESE 18:25:49 49° NNE
YAOGAN 1 2.9 18:21:05 10° S 18:25:23 66° WSW 18:29:44 10° NNW
USA 116 4.3 18:24:33 48° NNE 18:26:07 81° ESE 18:31:22 10° SSW
BREEZE-M DEB (TANK) 4.0 18:23:59 10° W 18:27:08 21° SW 18:27:29 20° SSW
USA 229 DEB 4.1 18:21:47 10° NW 18:28:35 46° NNE 18:29:29 44° NE
USA 229 4.1 18:21:54 10° NW 18:28:41 46° NNE 18:29:34 44° NE
Cosmos 2322 Rocket 4.4 18:26:37 10° WNW 18:30:00 16° NNW 18:32:56 11° N
NOSS 3-4 (A) 4.3 18:27:29 10° W 18:33:20 44° NNW 18:35:44 32° NNE
NOSS 3-4 (C) 4.3 18:27:34 10° W 18:33:26 44° NNW 18:35:50 32° NNE
NOSS 3-1 (A) 4.4 18:27:12 10° NW 18:33:41 41° NNE 18:34:26 40° NE
SL-16 R/B 4.5 18:33:20 10° NW 18:36:22 14° NNW 18:38:56 11° N
Cosmos 2026 Rocket 3.8 18:30:46 10° S 18:36:51 90° W 18:40:54 23° N
Cosmos 489 Rocket 4.4 18:31:57 10° NNW 18:38:19 71° ENE 18:38:48 68° E
Ariane Rocket 3.8 18:40:38 40° N 18:40:38 40° N 18:43:53 10° NNW
Cosmos 2219 Rocket 3.5 18:36:37 10° WSW 18:41:46 36° NW 18:44:27 23° N
Okean 1-7 4.2 18:39:37 10° SSW 18:42:13 35° SSW 18:42:13 35° SSW
Cosmos 1417 Rocket 4.3 18:40:04 10° N 18:46:15 87° E 18:48:46 38° SSE
CZ-4 R/B 3.2 18:43:11 10° SSW 18:46:39 30° W 18:50:06 10° NNW
Cosmos 1980 4.2 18:49:02 10° SW 18:54:35 56° NW 18:55:38 49° NNW
Cosmos 2297 4.1 18:49:30 10° NW 18:55:07 59° WSW 18:56:47 42° SSW
Lacrosse 5 rocket 3.1 18:55:07 10° WSW 18:57:26 31° W 18:57:26 31° W
Cosmos 1943 Rocket 3.1 18:54:12 10° NNW 18:57:45 38° NNW 18:57:45 38° NNW
COSMOS 2428 4.4 19:03:10 10° W 19:07:59 27° NW 19:09:50 23° N
SeaSat 1 3.7 19:11:02 35° NW 19:11:02 35° NW 19:13:53 10° NNW
SL-4 R/B 4.2 19:05:07 10° W 19:06:40 23° W 19:06:40 23° W
ATLAS 2AS CENTAUR R/B 3.9 19:04:54 10° W 19:12:17 38° NNW 19:14:11 33° NNE
USA 215 3.7 19:31:30 52° NNW 19:31:30 52° NNW 19:37:00 10° WNW
Cosmos 2369 Rocket 4.2 19:48:57 10° NW 19:50:56 22° NW 19:50:56 22° NW
SL-16 R/B 4.2 19:49:55 10° SW 19:51:52 22° WSW 19:51:52 22° WSW
Cosmos 2237 Rocket 4.3 20:04:23 10° W 20:07:40 23° WNW 20:07:40 23° WNW
Cosmos 2344 4.2 20:00:06 10° NW 20:09:11 84° W 20:09:11 84° W
